Tracking 19717 objects as of 25-Jun-2019
HD Live streaming from Space Station
objects crossing your sky now

COSMOS 1711 (GLONASS)

Track COSMOS 1711 (GLONASS) now!
COSMOS 1711 (GLONASS) is classified as:


NORAD ID: 16397
Int'l Code: 1985-118B
Perigee: 19,115.1 km
Apogee: 19,159.0 km
Inclination: 66.0 °
Period: 675.7 minutes
Semi major axis: 25508 km
RCS: 0.7803 m2 (medium)
Launch date: December 24, 1985
Source: Commonwealth of Independent States (former USSR) (CIS)
Launch site: TYURATAM MISSILE AND SPACE COMPLEX (TTMTR)
aabbcc
Your satellite tracking list
Your tracking list is empty




NASA's NSSDC Master Catalog

Two Line Element Set (TLE):
1 16397U 85118B   19175.15576590 -.00000062  00000-0  00000+0 0  9998
2 16397  66.0452  48.3717 0008613 197.6920 328.7761  2.13101979260716
Source of the keplerian elements: AFSPC